www.pogodaiklimat.ru

Погода и климат >> Архив погоды >> Болгария >> Sandanski


ПОГОДА в Sandanski

  • Прогноз погоды в Sandanski
  • Монитор погоды в Sandanski
  • Климат города

АРХИВ ПОГОДЫ в Sandanski

Время (UTC), дата Ветер
(напр.,м/с)
 
Видим.   Явления Облачность Т
(С)
Тd
(С)
f
(%)
Тe
(С)
Тes
(С)
Комфортность P
(гПа)
Po
(гПа)
Тmin
(С)
Tmax
(С)
R
(мм)
R24
(мм)
S
(см)
18 11.10 штиль 0 25 км 8/8 1000 м
[Sc]
+20.2 +8.9 48 +21 +21 комфорт 1021.7 997.5 +10.2 +25.3
21 11.10 СЗ 2 25 км 8/8 1000 м
[Sc]
+18.8 +7.4 47 +20 +20 1023.0 998.7 +18.5 +20.5
00 12.10 З 2 25 км 8/8 1000 м
[Sc]
+17.1 +8.3 56 +17 +17 1022.9 998.4 +17.0 +20.5
03 12.10 СЗ 2 25 км 8/8 1000 м
[Sc]
+16.1 +8.0 59 +16 +16 1023.5 998.9 +15.6 +20.5
06 12.10 З 4 28 км 8/8 1000 м
[Sc]
+16.4 +7.7 56 +16 +16 1023.5 999.0 +15.6 +20.5
09 12.10 З 5 28 км 9/8 1000 м
[Sc Ac lent]
+18.4 +7.4 49 +18 +19 1024.5 1000.1 +16.4 +18.7
12 12.10 СЗ 2 30 км 8/6 1000 м
[Cb cap Ac trans]
+22.2 +7.4 38 +23 +25 комфорт 1022.7 998.7 +16.4 +22.5
15 12.10 В 1 30 км 9/9 1000 м
[Cu Sc]
+22.1 +7.8 40 +23 +23 комфорт 1021.7 997.7 +16.4 +25.0
18 12.10 З 1 30 км 9/9 1000 м
[Cu Sc]
+19.6 +7.3 45 +21 +21 комфорт 1023.0 998.7 +16.4 +25.0
21 12.10 СЗ 2 30 км 4/0
[Ac trans]
+16.7 +7.3 54 +17 +17 1024.5 1000.0 +16.4 +19.9
00 13.10 СЗ 2 30 км 4/0
[Ac trans]
+16.0 +6.9 55 +16 +16 1024.5 999.9 +15.0 +19.9
03 13.10 СЗ 2 30 км 4/0
[Ac trans]
+14.0 +7.1 63 +14 +14 1024.2 999.4 +13.7 +19.9
12 13.10 ЮЗ 2 30 км 9/1 1000 м
[Cu hum Ac As Ci fib]
+25.2 +8.6 35 +26 +29 жарко 1021.3 997.5 +14.0 +25.6
18 13.10 В 2 30 км 5/0
[Cs]
+19.4 +6.5 43 +21 +21 комфорт 1022.4 998.1 +14.0 +25.6
21 13.10 СВ 2 30 км 6/0
[Ac trans Cs]
+17.1 +6.9 51 +17 +17 1023.9 999.4 +16.6 +19.7
00 14.10 З 3 30 км 5/0
[Ac trans]
+15.5 +6.0 53 +15 +15 1024.3 999.7 +15.3 +19.7
03 14.10 С 3 30 км ясно +13.9 +5.4 56 +13 +13 1023.9 999.1 +13.7 +19.7
06 14.10 В 3 30 км 8/1 1000 м
[Cu med, cong Ac trans Cs]
+14.2 +4.8 53 +13 +14 1024.3 999.5 +13.0 +19.7
09 14.10 З 3 30 км 3/1 1000 м
[Cu hum Ci fib]
+20.4 +4.4 35 +21 +26 комфорт 1023.0 998.8 +14.2 +20.7
12 14.10 З 1 30 км 8/3 1000 м
[Cu med, cong Ac trans Ci sp]
+23.5 +4.7 29 +23 +27 комфорт 1021.0 997.1 +14.2 +24.1
15 14.10 В 2 30 км 4/0
[Ac trans]
+21.8 +7.1 39 +23 +23 комфорт 1020.2 996.2 +14.2 +24.2
03 15.10 штиль 0 30 км 3/0
[Ac trans]
+11.0 +6.8 75 +10 +10 1022.9 997.9 +13.6 +18.9
06 15.10 СВ 2 30 км ясно +12.4 +7.0 70 +12 +12 1023.1 998.2 +9.8 +18.9
09 15.10 С 2 30 км 1/1 1000 м
[Cu hum]
+19.9 +6.7 42 +21 +28 комфорт 1022.0 997.8 +12.4 +20.0
12 15.10 ЮЗ 2 30 км 1/1 1000 м
[Cu med, cong]
+24.0 +6.7 33 +24 +30 комфорт 1019.1 995.3 +12.4 +24.5
15 15.10 В 2 30 км 1/1 1500 м
[Cu hum]
+23.2 +6.6 34 +24 +24 комфорт 1019.0 995.1 +12.4 +25.0
18 15.10 В 5 25 км ясно +18.6 +8.2 51 +19 +19 1021.0 996.7 +12.4 +25.0
21 15.10 С 1 25 км ясно +15.5 +9.1 66 +16 +16 1023.0 998.4 +15.0 +18.9
00 16.10 З 3 25 км 4/0
[Ac trans]
+14.0 +9.3 73 +13 +13 1023.1 998.4 +13.4 +18.9
03 16.10 штиль 0 25 км 6/0
[Ac trans]
+11.9 +6.7 70 +11 +11 1023.4 998.5 +11.7 +18.9
06 16.10 СЗ 1 30 км 6/0
[Ac trans]
+13.2 +6.6 64 +14 +14 1023.3 998.5 +11.6 +18.9
09 16.10 С 2 30 км 3/1 1000 м
[Cu med, cong Ac trans]
+20.0 +7.1 43 +21 +27 комфорт 1022.4 998.2 +13.2 +20.3
12 16.10 Ю 2 30 км 1/1 1000 м
[Cu med, cong]
+24.3 +6.9 33 +24 +30 комфорт 1019.9 996.1 +13.2 +25.0
15 16.10 ЮВ 1 30 км 1/1 1000 м
[Cu med, cong]
+24.4 +7.7 34 +25 +25 комфорт 1019.1 995.3 +13.2 +25.5
18 16.10 З 2 30 км 1/1 1000 м
[Cu med, cong]
+18.6 +7.2 47 +19 +19 1020.4 996.1 +13.2 +25.5
21 16.10 З 3 30 км 1/1 1000 м
[Cu med, cong]
+15.8 +6.4 54 +15 +15 1022.0 997.4 +15.6 +18.9
00 17.10 штиль 0 30 км ясно +13.2 +6.6 64 +13 +13 1022.2 997.4 +13.0 +18.9
03 17.10 З 1 30 км ясно +10.4 +5.6 72 +10 +10 1022.1 997.1 +10.2 +18.9
06 17.10 штиль 0 30 км ясно +11.2 +6.6 73 +11 +12 1021.8 996.9 +9.6 +18.9
09 17.10 ЮЗ 1 30 км 1/1 1000 м
[Cu hum]
+18.0 +4.7 41 +19 +26 1020.4 996.1 +11.2 +18.6
12 17.10 В 2 30 км 1/1 1000 м
[Cu hum]
+24.2 +6.0 31 +24 +30 комфорт 1017.6 993.8 +11.2 +24.6
15 17.10 В 1 30 км 3/3 1000 м
[Cu hum]
+25.2 +5.9 29 +25 +25 комфорт 1016.3 992.6 +11.2 +25.6
18 17.10 штиль 0 30 км ясно +19.2 +7.8 48 +20 +20 1017.1 993.0 +11.2 +25.6
21 17.10 З 3 30 км ясно +16.2 +6.2 51 +16 +16 1018.7 994.3 +16.1 +19.5
00 18.10 штиль 0 25 км ясно +13.6 +6.6 63 +13 +13 1018.9 994.2 +13.4 +19.5
03 18.10 штиль 0 25 км ясно +12.2 +7.0 71 +12 +12 1018.2 993.4 +12.1 +19.5

 

Местоположение метеостанции Sandanski (Болгария): широта 41.52 долгота 23.27 высота над уровнем моря 207 м.

В архиве по умолчанию представлена погода в Sandanski за последнюю неделю. Архивные данные за месяц целиком и за предыдущие месяцы, начиная с января 2011 года, Вы можете получить, выбрав интересующий диапазон дат из раскрывающегося списка и нажав кнопку "Ввод!".


*Определитесь, кто Вы:
робот инопланетянин человек

Внимание! Время в таблицах - всемирное. Для получения местного времени необходимо прибавить поправку, которая в Sandanski равна 2 ч.

Смотрите также архив погоды в соседних городах и на ближайших метеорологических станциях:

Погода в Berovo (Македония) (41 км)
Погода в Strumica (Македония) (53 км)
Погода в Serrai (Греция) (56 км)
Погода в Vinica (Македония) (75 км)
Погода в Gevgelija (Македония) (76 км)
Погода в Mussala (Болгария) (78 км)
Погода в Demir Kapija (Македония) (86 км)
Погода в Stip (Македония) (94 км)
Погода в Kriva Palanka (Македония) (109 км)
Погода в Thessaloniki (Греция) (114 км)

Пояснения к столбцам:

Ветер - указаны скорость ветра в м/с - средняя за 10 мин, порывы в срок и между сроками (в фигурных скобках) и направление, откуда дует ветер: С - северный, СВ - северо-восточный, В - восточный, ЮВ - юго-восточный, Ю - южный, ЮЗ - юго-западный, З - западный, СЗ - северо-западный.
Видимость - горизонтальная дальность видимости в метрах или километрах. При видимости от 1 до 10 км при отсутствии осадков обычно наблюдается дымка, при ухудшении видимости до 1 км и менее - туман. В сухую погоду видимость может ухудшаться дымом, пылью или мглою.
Явления - указаны атмосферные явления, наблюдавшиеся в срок или в последний час перед сроком; фигурными скобками обозначены явления, наблюдавшиеся между сроками (за 1-3 часа до срока); квадратными скобками обозначены град или гололедные отложения с указанием их диаметра в мм.
Облачность - указаны через наклонную черту общая и нижняя облачность в баллах и высота нижней границы облаков в метрах; квадратными скобками обозначены формы облаков: Ci - перистые, Cs - перисто-слоистые, Cc - перисто-кучевые, Ac - высококучевые, As - высокослоистые, Sc - слоисто-кучевые, Ns - слоисто-дождевые, Cu - кучевые, Cb - кучево-дождевые. Подробнее классификацию облаков см. в Атласе облаков (PDF).
T - Температура воздуха - температура, измеренная на высоте 2 м над землей.
Td - Температура точки росы - температура, при понижении до которой содержащийся в воздухе водяной пар достигнет насыщения.
f - Относительная влажность воздуха - влажноcть воздуха, измеренная на высоте 2 м над землей.
Te - Эффективная температура - температура, которую ощущает одетый по сезону человек в тени. Характеристика душности погоды. При расчете учитывается влияние влажности воздуха и скорости ветра на теплоощущения человека.
Tes - Эффективная температура на солнце - температура, которую ощущает человек, с поправкой на солнечный нагрев. Характеристика знойности погоды. Зависит от высоты солнца над горизонтом, облачности и скорости ветра. Ночью, в пасмурную погоду, а также при ветре 12 м/с и более поправка равна нулю.
P - Атмосферное давление - приведенное к уровню моря атмосферное давление.
Po - Атмосферное давление - измеренное на уровне метеостанции атмосферное давление.
Tmin - Минимальная температура - минимум температуры воздуха на высоте 2 м над землей.
Tmax - Максимальная температура - максимум температуры воздуха на высоте 2 м над землей.
R - Количество осадков - Количество выпавших осадков за период времени, мм. При наведении курсора мыши на число - период времени, за который выпало указанное количество осадков.
R24 - Количество осадков - Количество выпавших осадков за 24 часа, мм.
S - Снежный покров - Высота снежного покрова, см. При наведении курсора мыши на число - состояние снежного покрова и степень покрытия местности в баллах.